Skip to content

GuitarMania

(*.140.164.116) 조회 수 5020 댓글 3
오늘은 시간이 좀 주어져 다시 녹음해 봤습니다^^*
Comment '3'
  • Jason 2007.07.24 13:10 (*.29.94.88)
    제 노웉북컴을 아들놈 차에 두고 내려서리....ㅋㅋ
    조그마한 노웉북으로 들으니 ...소리가 마치 조그마한 옛날 트란지스타 라디오 같은 소리가...ㅋㅋ
    그래두 먼저 박수부터..짝짝짝
    님의 기타사랑과 노력에 함께 즐거워합니다. ^^
    이제 아홉곡 남았네요...고지가 바로 저기 보이네요.
    같이 듣는 우리도 행복합니다.
  • 암흑 2007.07.24 22:44 (*.35.77.47)
    고맙습니다^^*
    저는 머든 끝까지 가는 적이 없었는데 ㅋㅋ 25곡을 정말 제대로 녹음을 할수 있을지...
    책도 만화책과 소설책 빼놓고는 끝가지 읽어본적이 없고 신문도 꺼꾸로 봐요 ㅋ
    그래도 이렇게 들어주시는 분이 있으시니 그 힘으로 녹음하는거 같습니다^^*
  • 콩쥐 2007.07.28 16:41 (*.84.127.245)
    다양한 느낌을 느길수있어 좋네요..
?

List of Articles
번호 제목 글쓴이 날짜 조회 수
1795 Santa Lucia 3 file fernando 2007.07.31 4881
1794 John Lennon의 "Love" 25 file huhu.. 2007.07.29 5979
1793 17. Lettre encore... - Roland Dyens 1 file 밀롱가. 2007.07.29 4327
1792 그댄 봄비를 무척 좋아하나요(조옮김version) 9 file huhu.. 2007.07.28 8264
1791 16. Lettre a Isaac, Emilio et les autres - Roland Dyens 4 file 밀롱가. 2007.07.25 3934
1790 종소리 3 file 칠점 2007.07.24 4357
» 카르카시25 연습곡중 16번_ 3 file 암흑 2007.07.24 5020
1788 김현식의 "사랑했어요" 5 file huhu.. 2007.07.23 6130
1787 유심초의 "사랑하는 그대에게" file huhu.. 2007.07.23 6568
1786 15. Lettre a Jacues Cartier - Roland Dyens 1 file 밀롱가. 2007.07.21 3937
1785 14. Lettre au calme - Roland Dyens 1 file 밀롱가. 2007.07.21 4034
1784 비가오네요...rain drops입니다.. 3 file amabile 2007.07.19 4250
1783 13. Lettre et le neant - Roland Dyens 11 file 밀롱가. 2007.07.18 4341
1782 12. Lettre a demain - Roland Dyens 1 file 밀롱가. 2007.07.18 3933
1781 11. Lettre Nordestine - Roland Dyens 2 file 밀롱가. 2007.07.17 3920
1780 Agustin Barrios, Preludio en do menor 2 file 팔리아치 2007.07.17 5672
1779 La Catedral, I. Preludio Saudade 2 file 팔리아치 2007.07.17 5599
1778 라리아네의 축제 4 file yhc 2007.07.16 5235
1777 10. Lettre a la vieille Angleterre - Roland Dyens 5 file 밀롱가. 2007.07.15 3948
1776 9. Lettre a Claude et Maurice- Roland Dyens 3 file 밀롱가. 2007.07.14 4524
1775 로망스-원큐 애드립 놀이 6 file 팔리아치 2007.07.14 4898
1774 타레가 에튜드로 오른손 변주 2 file 팔리아치 2007.07.14 4347
1773 아침 손풀이 카바티나 3 file 팔리아치 2007.07.14 4260
1772 월광-베토벤 입니다. 8 file G-Love 2007.07.13 4898
1771 8. Venezuelettre - Roland Dyens 2 file 밀롱가. 2007.07.12 3686
1770 7. Lettre latine - Roland Dyens 3 file 밀롱가. 2007.07.12 4454
1769 카르카시25 연습곡중 16번 3 file 암흑 2007.07.12 5070
1768 샤콩 좋아하는부분만 잘라서 2 file 좁은길로 2007.07.11 3919
1767 6. Lettre mi-longue - Roland Dyens 2 file 밀롱가. 2007.07.11 3846
1766 로망스-스패인민요 입니다. 10 file G-Love 2007.07.11 4718
1765 쉘부르의 우산 18 file 항해사 2007.07.11 6057
1764 항구의 봄 (Primavera portena) 4 예의서방 2007.07.10 5601
1763 The Flatt Pavin -John Johnson 8 file 지초이 2007.07.10 4090
1762 Galliard -John Johnson 1 file 지초이 2007.07.10 4020
1761 Schubert Minuet and Trio,Trans by Tarrega - Jason님 연주 11 암흑 2007.07.09 4430
1760 세레나데-슈베르트 입니다. 4 file G-Love 2007.07.09 5167
1759 마적 3 file 칠점 2007.07.08 4208
1758 故김광석의 "거리에서" 8 file huhu.. 2007.07.08 7778
1757 연습중인 BWV998 ,Prelude 부분 1 file 좁은길로 2007.07.08 6530
1756 5. Lettre francaise - Roland Dyens 2 file 밀롱가. 2007.07.07 4020
1755 Franz Peter Schubert - Nacht und Traume(밤과꿈) 8 file 항해사 2007.07.07 5114
1754 4. Lettre a soi-meme - Roland Dyens 3 file 밀롱가. 2007.07.05 3740
1753 카르카시25 연습곡중 15번 10 file 암흑 2007.07.05 4331
1752 3. Lettre noire - Roland Dyens 6 file 밀롱가. 2007.07.04 3848
1751 알함브라행 막차.. 8 file 진느 2007.07.04 4849
1750 2. Lettre a la Seine - Roland Dyens 3 file 밀롱가. 2007.07.03 3936
1749 1. Lettre a Sydney - Roland Dyens 2 file 밀롱가. 2007.07.02 4709
1748 Eric Clapton - Signe 8 2007.07.02 5653
1747 Twilight (黃昏 : 황혼) 4 2007.07.02 4802
1746 Leo Brouwer 10 Etude Simples - #10 7 file 밀롱가. 2007.06.29 4277
1745 Leo Brouwer 10 Etude Simples - #9 3 file 밀롱가. 2007.06.29 4044
1744 알함브라 2 file 칠점 2007.06.29 4599
1743 꿈길에서 - 포스터 4 file 짜가운오적어 2007.06.27 5883
1742 캐리비안의 해적 He is a pirate 44 file MSGr 2007.06.27 8611
1741 [예전꺼] 별헤는 아이 5 file 항해사 2007.06.23 4762
1740 꿀벌 1 file 칠점 2007.06.21 5392
1739 Leo Brouwer 10 Etude Simples - #8 2 file 밀롱가. 2007.06.19 4329
1738 심상 (망고레) 이어지는 삽질의 원샷 4 file PassMan 2007.06.19 4555
1737 El Ultimo Cancion 간만에 원샷 녹음 4 file PassMan 2007.06.19 5748
1736 알함브라- 콩쿨 지정곡(ㅋㅋㅋ) 7 file fernando 2007.06.19 4821
1735 제가 혼자 삽질한 알함브라입니다.ㅠ 3 file 런던busker 2007.06.19 4049
1734 울티모 3 file 칠점 2007.06.18 4811
1733 카르카시25 연습곡중 14번 10 file 암흑 2007.06.17 5539
1732 sonata brillant-M.Giuliani 3 file yhc 2007.06.16 6931
1731 요즘 연습중인 스카를랏티 소나타 k380 4 file 최병욱 2007.06.16 4420
1730 F . Tarrega - Recuerdos de la Alhambra 12 file 고정석 2007.06.15 5936
1729 Recuerdos de la Alhambra 6 file 2007.06.15 6036
1728 Leo Brouwer 10 Etude Simples - #7 4 file 밀롱가. 2007.06.15 3884
1727 Andantino Op.2 No3- Sor 9 file 지초이 2007.06.15 4070
1726 Leo Brouwer 10 Etude Simples - #6 2 file 밀롱가. 2007.06.14 3572
1725 Leo Brouwer 10 Etude Simples - #5 file 밀롱가. 2007.06.14 3944
1724 Leo Brouwer 10 Etude Simples - #4 file 밀롱가. 2007.06.14 3927
1723 바하의 G선상의 아리아[Aria in Suite 3] mrpotato 2007.06.14 5396
1722 대리석궁전에 사는 꿈을 꾸었어요[I dreamt I dwelt in marble halls] 2 mrpotato 2007.06.14 7870
1721 바위섬[Rock Island] mrpotato 2007.06.14 4756
1720 [동영상]He is a pirate (영화 "캐리비언의 해적"중에서) 9 file 꼬마영규 2007.06.10 7426
1719 바흐 류트 조곡 1번 프렐류드.. 1 manicstreetprechers 2007.06.10 4322
1718 윤도현 "사랑했나봐" 3 huhu.. 2007.06.10 5455
1717 [re] "사랑했나봐" 조정분 file huhu.. 2007.08.14 4448
1716 센과 치히로 행방불명 ost 3 - 情 - 2007.06.10 5548
1715 Leo Brouwer 10 Etude Simples - #3 1 file 밀롱가. 2007.06.10 4273
1714 햇빛촌 "유리창엔 비" huhu.. 2007.06.08 6081
1713 은희 "꽃반지 끼고" 4 huhu.. 2007.06.08 7938
1712 꽃반지 끼고 - 은희 14 file 항해사 2007.06.08 7008
1711 Leo Brouwer 10 Etude Simples - #2 5 file 밀롱가. 2007.06.08 4065
1710 Leo Brouwer 10 Etude Simples - #1 3 file 밀롱가. 2007.06.06 4213
1709 Avec le temps 2 file 밀롱가. 2007.06.02 4142
1708 조용필 "물망초" huhu.. 2007.06.02 5828
1707 알함브라궁전의 추억 3 굼벵이 2007.06.02 4930
1706 벌새 2 칠점 2007.06.01 5265
1705 월량대표아적심 13 file G-Love 2007.06.01 4875
1704 울티모 6 칠점 2007.05.30 3944
1703 알함브라 6 file G-Love 2007.05.30 4493
1702 [re] 알함브라 5 barrios 2007.05.30 4011
1701 촛불-정태춘 3 file yhc 2007.05.29 4665
1700 오페라 잔니 스키키에서 아버지에게 소원 10 file 항해사 2007.05.29 4751
1699 홍삼트리오 "기도" 9 huhu.. 2007.05.29 5869
1698 이루의 "까만안경" 3 huhu.. 2007.05.29 5049
1697 [re] "까만안경" 조정분 file huhu.. 2007.08.14 4385
1696 월량대표아적심(月亮代表我的心) 70 huhu.. 2007.05.29 16816
Board Pagination ‹ Prev 1 2 3 4 5 6 7 8 9 10 11 12 13 14 15 16 17 18 19 20 21 ... 29 Next ›
/ 29

나눔글꼴 설치 안내


이 PC에는 나눔글꼴이 설치되어 있지 않습니다.

이 사이트를 나눔글꼴로 보기 위해서는
나눔글꼴을 설치해야 합니다.

설치 취소

Designed by sketchbooks.co.kr / sketchbook5 board skin

Sketchbook5, 스케치북5

Sketchbook5, 스케치북5

Sketchbook5, 스케치북5

Sketchbook5, 스케치북5

Powered by Xpress Engine / Designed by hikaru100

abcXYZ, 세종대왕,1234

abcXYZ, 세종대왕,1234